Temp
-17 -17 -17 -17 -17 -17 -17 -17 -17 -17 -18 -18 -18 -18 -18 -17 -17 -17 -17 -17 -16 -16 -15 -15 -15 -14 -14 -14 -14 -15 -14 -14 -16 -15 -14 -13 -13 -13 -12 -12 -12 -13 -13 -13 -13 -13 -11 -10 -10 -10 -10 -10 -12 -10
-18 -18 -18 -18 -18 -18 -18 -18 -18 -18 -18 -18 -18 -18 -18 -18 -18 -18 -18 -19 -18 -17 -16 -16 -16 -15 -17 -19 -17 -18 -16 -15 -17 -18 -19 -19 -17 -15 -14 -13 -12 -13 -14 -15 -15 -13 -11 -11 -10 -10 -10 -9 -10 -11
-19 -19 -19 -19 -19 -18 -18 -19 -19 -19 -19 -19 -19 -20 -20 -21 -21 -22 -21 -22 -22 -21 -19 -17 -19 -22 -20 -22 -24 -20 -21 -23 -22 -25 -23 -22 -21 -19 -17 -17 -15 -15 -16 -19 -16 -14 -12 -12 -12 -12 -11 -10 -9 -9
-20 -20 -20 -20 -20 -20 -20 -20 -21 -21 -21 -22 -23 -23 -24 -25 -25 -26 -26 -26 -26 -26 -24 -22 -24 -24 -26 -27 -27 -27 -26 -27 -27 -28 -28 -27 -27 -25 -22 -22 -20 -20 -20 -20 -20 -14 -15 -15 -14 -15 -13 -11 -10 -10
-21 -21 -22 -22 -23 -23 -24 -24 -25 -25 -25 -25 -26 -26 -27 -28 -29 -29 -29 -29 -29 -29 -29 -27 -27 -28 -28 -29 -29 -29 -29 -29 -29 -28 -28 -28 -28 -27 -27 -27 -26 -23 -23 -25 -24 -22 -21 -16 -18 -16 -16 -14 -12 -11
-24 -24 -25 -26 -27 -27 -27 -27 -27 -27 -27 -27 -27 -29 -29 -29 -29 -29 -29 -29 -29 -30 -30 -29 -29 -29 -29 -29 -29 -29 -29 -29 -29 -29 -29 -28 -28 -28 -28 -28 -27 -26 -25 -24 -25 -23 -22 -22 -20 -20 -20 -18 -16 -15
-26 -26 -27 -28 -29 -29 -28 -28 -28 -28 -28 -28 -29 -30 -30 -30 -30 -30 -29 -30 -30 -30 -30 -30 -29 -29 -29 -29 -29 -29 -29 -29 -29 -29 -29 -29 -28 -29 -29 -28 -24 -24 -25 -26 -27 -26 -25 -24 -22 -22 -20 -20 -20 -20
-28 -28 -29 -29 -29 -29 -29 -29 -30 -30 -30 -31 -30 -30 -30 -30 -30 -30 -30 -30 -30 -30 -30 -30 -29 -29 -29 -29 -29 -29 -29 -29 -29 -29 -29 -29 -28 -29 -28 -26 -27 -27 -27 -27 -27 -27 -27 -26 -25 -22 -21 -21 -21 -21
-29 -29 -29 -29 -29 -30 -30 -30 -31 -31 -31 -30 -30 -30 -30 -30 -30 -31 -30 -30 -30 -29 -29 -29 -29 -29 -29 -29 -29 -29 -29 -29 -29 -29 -28 -29 -29 -28 -28 -28 -27 -27 -27 -27 -27 -27 -27 -27 -26 -24 -23 -23 -22 -22
-30 -30 -30 -30 -30 -30 -30 -31 -31 -31 -31 -31 -31 -30 -30 -31 -31 -31 -31 -30 -30 -30 -30 -29 -29 -29 -30 -29 -29 -29 -29 -29 -29 -28 -29 -28 -28 -28 -28 -27 -27 -27 -27 -27 -27 -27 -26 -26 -26 -25 -23 -23 -23 -22
-30 -30 -30 -30 -30 -30 -31 -31 -31 -31 -31 -31 -31 -31 -31 -31 -31 -31 -31 -31 -31 -30 -30 -30 -30 -30 -30 -29 -29 -29 -29 -29 -28 -28 -28 -28 -27 -27 -28 -27 -27 -27 -27 -27 -27 -27 -26 -26 -26 -26 -25 -24 -24 -23
-31 -30 -30 -31 -31 -31 -31 -31 -31 -31 -31 -31 -31 -31 -31 -31 -31 -31 -31 -31 -31 -30 -30 -30 -30 -30 -30 -30 -29 -29 -29 -29 -28 -28 -28 -28 -28 -28 -27 -27 -27 -27 -27 -27 -26 -26 -26 -26 -26 -25 -25 -25 -25 -24
-31 -31 -31 -31 -31 -31 -31 -31 -31 -31 -31 -31 -31 -31 -31 -31 -31 -31 -31 -30 -31 -31 -31 -30 -30 -30 -30 -30 -30 -30 -29 -28 -28 -28 -28 -28 -28 -27 -27 -27 -27 -26 -26 -26 -26 -26 -26 -26 -25 -24 -24 -24 -24 -24
-31 -31 -30 -31 -31 -31 -31 -31 -31 -31 -32 -31 -31 -31 -31 -31 -31 -31 -31 -31 -31 -31 -31 -31 -30 -30 -30 -30 -30 -29 -29 -29 -28 -28 -27 -28 -28 -27 -27 -27 -27 -26 -26 -26 -25 -25 -25 -25 -24 -24 -24 -23 -23 -23
-31 -31 -30 -30 -31 -31 -31 -31 -31 -31 -32 -32 -31 -31 -31 -31 -31 -31 -31 -31 -31 -31 -31 -31 -30 -30 -30 -30 -30 -29 -29 -29 -28 -28 -28 -28 -27 -27 -27 -26 -26 -25 -25 -25 -24 -24 -24 -23 -23 -23 -24 -23 -24 -23
-31 -31 -31 -31 -31 -31 -31 -31 -31 -31 -32 -32 -31 -31 -31 -31 -31 -31 -31 -31 -31 -31 -31 -31 -31 -30 -30 -30 -29 -29 -28 -28 -28 -28 -28 -28 -27 -26 -26 -25 -25 -25 -24 -24 -24 -23 -23 -23 -23 -22 -23 -23 -23 -23
-31 -31 -31 -31 -31 -31 -31 -31 -31 -31 -31 -31 -31 -31 -31 -31 -31 -31 -31 -31 -31 -31 -31 -31 -30 -31 -30 -30 -29 -28 -28 -28 -28 -28 -28 -27 -27 -26 -25 -25 -24 -24 -23 -23 -23 -23 -23 -22 -22 -22 -23 -23 -23 -23
-31 -31 -31 -31 -31 -31 -31 -31 -31 -31 -31 -31 -31 -31 -31 -31 -31 -31 -31 -31 -31 -31 -30 -30 -30 -30 -29 -28 -28 -28 -28 -28 -28 -27 -27 -27 -26 -25 -25 -25 -25 -24 -23 -23 -23 -23 -22 -22 -22 -22 -23 -23 -23 -23
-32 -32 -31 -31 -31 -31 -31 -31 -31 -31 -31 -31 -31 -31 -31 -30 -31 -31 -31 -31 -31 -31 -31 -30 -30 -29 -29 -29 -28 -28 -28 -27 -27 -27 -26 -26 -26 -26 -26 -25 -25 -24 -24 -24 -24 -23 -23 -22 -22 -22 -22 -22 -23 -23
-31 -31 -31 -31 -31 -31 -31 -31 -31 -31 -30 -30 -31 -31 -30 -30 -30 -30 -30 -30 -30 -30 -30 -29 -29 -28 -28 -27 -27 -27 -27 -27 -26 -26 -26 -27 -27 -26 -26 -26 -25 -25 -24 -24 -24 -24 -24 -24 -23 -23 -23 -23 -23 -23
-31 -31 -31 -31 -31 -31 -31 -31 -31 -30 -30 -30 -30 -30 -30 -30 -30 -29 -29 -29 -29 -29 -29 -28 -28 -28 -27 -27 -26 -26 -26 -26 -26 -26 -27 -27 -27 -26 -26 -26 -26 -25 -25 -25 -25 -24 -24 -24 -24 -24 -24 -24 -23 -23
-31 -31 -31 -31 -31 -31 -31 -30 -30 -30 -30 -30 -30 -29 -29 -29 -29 -29 -28 -28 -28 -28 -27 -27 -27 -27 -26 -26 -26 -26 -26 -26 -26 -27 -27 -27 -26 -26 -26 -26 -26 -26 -26 -26 -25 -25 -25 -25 -25 -25 -25 -25 -24 -24
-31 -31 -31 -30 -31 -31 -30 -30 -30 -30 -29 -29 -29 -29 -29 -28 -28 -28 -27 -27 -27 -26 -26 -26 -27 -26 -26 -26 -26 -26 -26 -27 -27 -27 -27 -27 -27 -27 -27 -27 -27 -27 -27 -27 -27 -26 -26 -26 -26 -26 -26 -26 -26 -25
-31 -31 -31 -31 -31 -30 -30 -30 -30 -29 -29 -29 -28 -28 -28 -27 -27 -27 -27 -27 -27 -27 -27 -27 -27 -27 -27 -27 -27 -27 -27 -27 -27 -27 -27 -27 -27 -27 -27 -27 -27 -27 -27 -27 -27 -27 -27 -27 -27 -27 -27 -27 -27 -27
-31 -31 -30 -30 -30 -30 -29 -29 -29 -29 -29 -28 -28 -28 -27 -27 -27 -27 -27 -27 -27 -27 -27 -27 -27 -27 -28 -28 -28 -28 -28 -28 -28 -28 -28 -28 -28 -28 -28 -27 -27 -27 -27 -27 -27 -27 -27 -27 -27 -27 -27 -26 -26 -26
-30 -30 -30 -30 -30 -30 -29 -29 -29 -28 -28 -28 -28 -27 -27 -27 -27 -27 -27 -27 -27 -26 -26 -27 -27 -27 -27 -27 -28 -28 -28 -28 -28 -28 -28 -28 -28 -28 -28 -28 -28 -28 -28 -28 -28 -28 -28 -28 -27 -27 -27 -27 -27 -27
-29 -29 -29 -29 -29 -29 -29 -28 -28 -28 -27 -27 -27 -27 -27 -27 -27 -27 -27 -27 -27 -27 -27 -27 -27 -28 -28 -28 -28 -28 -28 -28 -29 -29 -29 -29 -29 -29 -29 -29 -29 -29 -28 -28 -28 -28 -28 -28 -28 -28 -28 -28 -28 -28
-29 -29 -29 -29 -28 -28 -28 -27 -27 -27 -27 -27 -27 -27 -27 -27 -27 -27 -27 -27 -27 -28 -28 -28 -28 -28 -28 -29 -29 -29 -29 -29 -29 -29 -29 -29 -29 -29 -29 -29 -29 -29 -29 -29 -29 -29 -29 -29 -29 -29 -29 -29 -29 -29
-29 -28 -28 -28 -28 -27 -27 -27 -27 -27 -27 -27 -27 -27 -27 -27 -27 -27 -27 -28 -28 -28 -28 -28 -28 -29 -29 -29 -29 -29 -30 -30 -30 -30 -30 -30 -30 -30 -30 -30 -30 -30 -30 -30 -30 -30 -30 -30 -30 -30 -30 -30 -30 -30
-28 -28 -27 -27 -27 -27 -27 -27 -27 -27 -27 -27 -28 -28 -28 -28 -28 -28 -28 -28 -28 -29 -29 -29 -29 -29 -29 -29 -30 -30 -31 -31 -31 -31 -31 -31 -30 -30 -30 -30 -31 -31 -31 -31 -31 -31 -31 -31 -31 -31 -31 -31 -31 -31
-27 -27 -27 -27 -27 -27 -27 -27 -28 -27 -27 -28 -28 -28 -28 -28 -28 -28 -29 -29 -29 -29 -29 -29 -30 -30 -30 -30 -31 -31 -31 -31 -31 -31 -31 -31 -31 -31 -31 -31 -31 -31 -31 -31 -31 -31 -31 -31 -31 -31 -32 -32 -32 -32
-27 -27 -27 -27 -27 -27 -27 -27 -27 -28 -28 -28 -28 -28 -28 -28 -29 -29 -29 -29 -30 -30 -30 -30 -30 -31 -31 -31 -31 -31 -31 -31 -31 -31 -32 -32 -32 -32 -32 -32 -32 -31 -31 -32 -32 -32 -32 -32 -32 -33 -33 -33 -33 -33
-27 -27 -27 -27 -27 -27 -27 -28 -28 -28 -28 -28 -28 -29 -29 -29 -29 -29 -30 -30 -30 -31 -31 -31 -31 -31 -31 -31 -31 -31 -31 -31 -32 -32 -32 -32 -32 -32 -32 -32 -32 -32 -32 -33 -33 -33 -33 -34 -34 -34 -34 -34 -35 -35
Height
5609 5608 5607 5606 5606 5605 5605 5605 5605 5605 5605 5605 5606 5606 5605 5604 5602 5604 5606 5603 5604 5608 5615 5618 5619 5622 5615 5614 5614 5617 5618 5621 5619 5621 5625 5627 5633 5634 5637 5650 5650 5654 5655 5659 5663 5659 5671 5694 5689 5684 5692 5700 5700 5701
5591 5590 5588 5587 5587 5586 5585 5585 5585 5584 5584 5583 5584 5583 5582 5581 5580 5578 5584 5578 5578 5582 5594 5597 5598 5595 5591 5589 5589 5588 5594 5594 5592 5593 5595 5595 5603 5609 5614 5617 5626 5626 5629 5630 5634 5638 5654 5661 5664 5665 5669 5673 5683 5685
5572 5570 5570 5568 5568 5567 5566 5566 5565 5564 5563 5562 5561 5561 5560 5559 5558 5557 5559 5558 5557 5558 5563 5574 5575 5570 5570 5569 5564 5566 5571 5572 5572 5570 5568 5570 5572 5585 5586 5590 5598 5600 5605 5593 5602 5624 5627 5638 5635 5640 5646 5649 5653 5662
5552 5551 5550 5550 5549 5547 5546 5545 5545 5544 5544 5543 5542 5542 5541 5541 5541 5542 5541 5542 5540 5540 5540 5554 5551 5553 5553 5550 5549 5550 5555 5553 5555 5555 5552 5551 5552 5558 5562 5563 5565 5572 5578 5578 5575 5593 5600 5604 5611 5613 5620 5624 5631 5638
5534 5533 5532 5531 5530 5528 5528 5527 5526 5526 5527 5527 5527 5528 5529 5529 5530 5529 5530 5532 5532 5532 5530 5536 5538 5541 5540 5538 5539 5538 5541 5545 5544 5541 5539 5540 5542 5544 5543 5542 5539 5557 5556 5555 5552 5574 5568 5580 5589 5588 5584 5599 5607 5611
5516 5515 5515 5514 5514 5513 5513 5512 5512 5512 5512 5513 5515 5516 5518 5519 5520 5520 5523 5526 5525 5524 5522 5523 5529 5531 5530 5531 5532 5531 5532 5530 5528 5528 5529 5527 5535 5530 5524 5522 5534 5538 5539 5540 5539 5552 5556 5554 5559 5564 5566 5572 5573 5579
5499 5499 5500 5500 5501 5502 5502 5501 5501 5501 5501 5502 5504 5507 5509 5510 5512 5512 5517 5519 5517 5515 5515 5515 5518 5523 5524 5524 5523 5521 5520 5520 5518 5517 5516 5520 5522 5517 5512 5508 5529 5531 5527 5524 5524 5522 5521 5533 5534 5541 5533 5537 5543 5548
5484 5484 5486 5487 5489 5490 5490 5491 5491 5491 5492 5493 5496 5498 5500 5502 5503 5507 5506 5509 5510 5510 5510 5508 5512 5516 5515 5516 5516 5515 5513 5510 5510 5508 5510 5510 5511 5506 5498 5509 5512 5512 5511 5508 5510 5509 5502 5502 5505 5504 5509 5511 5516 5523
5470 5472 5473 5475 5476 5477 5478 5480 5482 5483 5483 5485 5488 5490 5492 5495 5497 5498 5498 5501 5502 5505 5501 5500 5506 5509 5508 5508 5508 5506 5504 5502 5501 5501 5502 5498 5498 5493 5500 5501 5500 5501 5498 5494 5491 5488 5488 5487 5486 5490 5492 5493 5492 5500
5457 5458 5460 5462 5463 5464 5466 5469 5472 5474 5475 5477 5480 5483 5486 5488 5488 5490 5491 5492 5493 5494 5495 5499 5501 5501 5500 5500 5499 5499 5496 5496 5496 5498 5494 5492 5491 5495 5496 5494 5490 5487 5482 5480 5478 5479 5477 5473 5472 5472 5472 5475 5477 5482
5445 5446 5447 5448 5449 5451 5455 5459 5462 5465 5466 5470 5474 5477 5479 5480 5481 5482 5482 5484 5486 5487 5490 5494 5494 5493 5493 5493 5492 5489 5488 5488 5484 5490 5485 5481 5483 5489 5482 5479 5477 5474 5472 5472 5468 5467 5465 5461 5460 5457 5455 5455 5456 5460
5432 5432 5433 5433 5435 5438 5444 5449 5452 5456 5461 5466 5468 5470 5472 5473 5474 5475 5475 5478 5480 5481 5484 5487 5486 5486 5486 5485 5483 5482 5481 5479 5477 5478 5476 5474 5477 5472 5470 5467 5464 5461 5460 5460 5458 5454 5452 5450 5447 5444 5443 5442 5442 5442
5421 5421 5421 5423 5424 5429 5435 5441 5446 5450 5454 5458 5460 5463 5465 5467 5467 5469 5472 5475 5475 5475 5477 5477 5478 5479 5479 5478 5476 5476 5474 5474 5471 5468 5467 5469 5466 5463 5460 5456 5454 5452 5450 5448 5445 5442 5439 5438 5436 5433 5430 5427 5425 5424
5412 5413 5413 5415 5420 5425 5430 5435 5439 5444 5448 5452 5454 5456 5457 5461 5464 5465 5467 5467 5467 5468 5468 5470 5471 5471 5472 5471 5471 5470 5469 5466 5464 5463 5461 5460 5458 5454 5449 5446 5444 5442 5440 5438 5436 5433 5430 5428 5424 5421 5418 5415 5413 5412
5407 5408 5409 5412 5416 5421 5425 5430 5434 5438 5442 5445 5447 5449 5455 5458 5459 5460 5461 5461 5461 5461 5462 5462 5462 5463 5464 5463 5463 5464 5463 5461 5460 5458 5455 5452 5450 5445 5441 5438 5434 5432 5430 5427 5425 5423 5419 5417 5415 5412 5409 5406 5404 5402
5403 5405 5407 5410 5413 5417 5421 5426 5429 5433 5436 5438 5440 5447 5451 5453 5455 5456 5456 5457 5456 5455 5454 5454 5454 5454 5455 5456 5457 5458 5457 5457 5455 5451 5448 5445 5441 5437 5433 5429 5426 5422 5418 5414 5412 5410 5407 5406 5403 5402 5400 5397 5395 5394
5399 5402 5404 5407 5410 5414 5418 5422 5425 5428 5429 5433 5440 5443 5445 5447 5449 5450 5450 5451 5449 5448 5449 5447 5448 5447 5447 5449 5452 5453 5452 5450 5448 5445 5441 5438 5434 5430 5426 5422 5417 5411 5406 5404 5402 5399 5396 5393 5390 5388 5389 5388 5387 5386
5394 5397 5401 5404 5408 5411 5415 5417 5420 5423 5426 5433 5436 5438 5439 5441 5443 5445 5444 5443 5442 5442 5442 5441 5441 5440 5440 5444 5447 5447 5444 5443 5441 5438 5436 5432 5429 5425 5421 5417 5412 5406 5401 5397 5392 5389 5385 5380 5378 5376 5376 5376 5377 5377
5391 5395 5399 5403 5407 5410 5412 5415 5418 5420 5424 5427 5430 5432 5434 5436 5437 5437 5437 5436 5436 5435 5434 5434 5431 5435 5437 5438 5438 5438 5437 5436 5435 5432 5429 5427 5425 5423 5420 5416 5411 5407 5402 5396 5391 5384 5379 5375 5373 5371 5369 5368 5367 5367
5391 5395 5398 5401 5404 5406 5409 5412 5414 5416 5420 5423 5425 5427 5428 5429 5430 5430 5429 5429 5429 5427 5427 5427 5429 5429 5430 5431 5431 5431 5430 5429 5427 5426 5425 5423 5422 5421 5418 5415 5411 5407 5401 5396 5391 5387 5381 5375 5369 5366 5364 5364 5364 5364
5388 5393 5396 5399 5402 5405 5407 5410 5412 5414 5417 5419 5421 5421 5421 5422 5423 5423 5423 5423 5422 5421 5422 5422 5423 5423 5423 5423 5424 5424 5424 5424 5424 5423 5422 5422 5421 5419 5416 5412 5409 5406 5402 5398 5394 5389 5385 5380 5374 5368 5364 5363 5363 5363
5388 5392 5395 5398 5401 5403 5405 5407 5409 5411 5413 5414 5415 5416 5418 5418 5418 5418 5418 5418 5417 5417 5416 5417 5418 5419 5420 5421 5422 5422 5423 5422 5421 5421 5421 5420 5419 5416 5413 5410 5407 5404 5401 5398 5394 5391 5387 5382 5378 5374 5371 5368 5365 5363
5386 5390 5393 5395 5400 5401 5404 5406 5407 5408 5410 5413 5413 5414 5414 5414 5415 5416 5415 5416 5416 5417 5418 5419 5420 5420 5420 5421 5421 5422 5422 5421 5421 5421 5420 5418 5416 5414 5412 5409 5406 5404 5400 5397 5395 5392 5388 5385 5382 5378 5376 5373 5370 5367
5386 5390 5392 5395 5397 5399 5401 5403 5406 5408 5410 5411 5412 5412 5413 5413 5414 5416 5416 5417 5418 5419 5419 5420 5420 5421 5421 5421 5421 5421 5421 5421 5420 5419 5418 5416 5415 5413 5411 5408 5405 5403 5401 5398 5396 5394 5390 5387 5385 5382 5379 5376 5374 5371
5385 5389 5391 5393 5396 5398 5400 5403 5406 5407 5409 5410 5411 5412 5413 5414 5416 5417 5418 5419 5419 5419 5419 5419 5420 5420 5420 5421 5421 5421 5420 5419 5418 5417 5415 5414 5412 5410 5408 5405 5403 5401 5399 5396 5394 5392 5390 5388 5385 5383 5380 5377 5375 5372
5384 5387 5391 5393 5396 5398 5401 5402 5404 5406 5408 5410 5412 5412 5414 5416 5418 5419 5419 5419 5419 5420 5420 5421 5420 5420 5419 5418 5418 5417 5416 5414 5413 5412 5410 5408 5407 5405 5403 5401 5399 5397 5395 5393 5391 5389 5386 5384 5383 5381 5378 5376 5373 5370
5384 5388 5391 5393 5396 5398 5400 5402 5405 5407 5410 5412 5414 5415 5416 5418 5419 5420 5420 5421 5421 5421 5421 5420 5419 5418 5417 5416 5414 5412 5410 5408 5406 5404 5403 5401 5400 5399 5397 5396 5394 5392 5390 5388 5387 5384 5382 5379 5377 5375 5373 5370 5367 5364
5385 5388 5390 5393 5395 5397 5400 5403 5406 5409 5412 5414 5416 5416 5417 5419 5420 5420 5420 5420 5419 5419 5418 5417 5416 5414 5412 5410 5408 5406 5403 5400 5398 5396 5394 5393 5392 5392 5391 5389 5387 5386 5384 5382 5380 5378 5376 5373 5371 5368 5365 5363 5360 5357
5384 5387 5389 5392 5395 5398 5402 5405 5408 5411 5413 5415 5416 5417 5418 5419 5419 5419 5418 5417 5416 5415 5414 5412 5409 5407 5405 5402 5400 5396 5394 5391 5389 5386 5385 5385 5385 5385 5383 5382 5381 5379 5378 5376 5374 5371 5369 5366 5364 5361 5358 5355 5351 5348
5385 5388 5391 5395 5398 5402 5405 5407 5410 5412 5413 5414 5415 5415 5416 5416 5416 5415 5413 5412 5410 5408 5406 5404 5401 5399 5397 5394 5391 5388 5386 5385 5383 5382 5379 5378 5379 5379 5378 5377 5376 5374 5372 5370 5368 5365 5362 5359 5356 5353 5350 5346 5343 5340
5387 5390 5394 5397 5400 5403 5405 5407 5408 5409 5410 5411 5411 5412 5411 5411 5410 5408 5407 5405 5403 5400 5398 5395 5393 5391 5388 5386 5384 5382 5381 5380 5378 5377 5376 5376 5374 5373 5372 5371 5369 5367 5365 5363 5360 5358 5355 5351 5348 5344 5340 5336 5332 5328
5389 5392 5395 5397 5399 5401 5403 5404 5405 5406 5406 5406 5406 5406 5405 5404 5403 5401 5399 5396 5394 5391 5389 5387 5385 5383 5381 5379 5378 5377 5375 5374 5373 5372 5371 5370 5369 5367 5366 5364 5362 5360 5357 5354 5351 5348 5345 5341 5337 5334 5330 5326 5322 5318
5389 5392 5393 5395 5397 5398 5400 5401 5401 5401 5401 5401 5400 5399 5398 5396 5394 5392 5389 5387 5385 5382 5381 5379 5377 5375 5374 5373 5371 5370 5369 5367 5366 5365 5364 5363 5362 5360 5358 5356 5353 5351 5348 5345 5342 5339 5335 5332 5329 5325 5322 5318 5314 5310
Wind_Speed
61 62 62 62 63 65 65 66 66 66 65 66 67 67 68 69 71 72 72 74 74 74 72 73 74 75 75 77 77 76 77 76 74 76 80 82 83 85 88 86 87 85 86 86 86 87 87 78 80 84 81 75 73 75
60 59 60 60 62 62 63 65 65 66 67 68 69 70 70 71 71 72 71 71 72 73 71 70 71 74 72 68 72 71 74 77 73 72 71 74 80 85 86 91 90 92 90 87 89 93 89 87 88 86 87 88 81 80
60 61 63 64 66 66 66 67 68 68 69 68 69 68 67 65 64 62 62 61 63 67 69 68 59 55 62 58 59 68 66 61 64 59 64 69 74 76 82 86 90 90 89 89 93 90 94 93 92 92 92 93 92 87
62 63 64 65 67 67 67 67 67 66 66 62 59 56 53 50 47 43 45 43 46 48 56 53 48 46 43 45 47 49 49 50 52 47 49 54 55 63 68 72 79 82 81 85 87 98 94 94 95 96 95 96 97 95
63 63 64 64 63 62 61 58 56 53 51 50 47 43 38 31 29 27 32 32 33 36 40 38 36 31 31 34 38 43 45 44 45 47 50 50 48 49 53 56 65 65 74 74 77 76 84 94 84 91 99 99 98 101
60 59 57 54 51 48 46 44 44 43 43 42 40 33 22 25 28 30 31 29 30 30 33 35 31 29 29 28 30 33 35 39 43 45 47 49 39 48 54 54 47 52 61 68 79 74 74 83 86 83 83 87 97 103
54 52 47 44 42 41 41 40 40 40 39 36 28 27 30 30 30 33 30 27 27 29 29 31 32 24 23 26 29 33 36 36 40 42 43 42 40 48 54 57 42 40 42 46 54 67 89 86 81 85 78 73 78 80
46 44 42 42 42 42 41 39 36 32 31 26 26 31 30 31 28 25 28 26 25 27 29 33 27 17 19 23 26 31 32 35 35 37 34 38 40 46 52 40 39 37 38 42 41 44 51 67 81 99 93 87 82 87
39 39 40 43 43 40 37 34 31 29 28 28 28 27 29 28 26 28 29 26 25 24 26 27 25 21 19 22 28 30 25 24 28 34 31 37 38 43 35 35 35 33 32 30 31 36 44 47 64 86 95 100 101 102
38 39 39 39 41 40 37 33 30 28 27 29 27 30 27 26 28 28 29 29 28 30 34 29 25 26 29 32 32 32 31 29 28 27 34 37 37 31 31 32 29 24 28 31 32 28 28 30 38 59 81 90 84 79
38 39 39 38 37 36 33 31 30 28 30 28 27 26 27 28 28 28 28 30 31 31 28 23 23 25 28 29 32 34 34 34 39 34 37 41 41 33 24 31 33 36 34 32 39 39 38 40 34 36 43 60 73 84
35 34 33 32 33 33 31 30 30 28 27 23 25 26 28 28 28 27 28 28 29 29 23 19 22 24 26 27 30 32 33 36 35 35 34 30 14 15 22 27 28 34 39 39 40 42 43 42 43 41 41 42 52 70
27 26 28 28 25 27 28 31 28 29 26 30 30 30 30 28 29 29 26 17 15 16 16 21 24 25 26 28 30 30 32 30 27 29 25 22 24 29 30 22 28 30 34 35 39 40 40 43 39 34 41 41 44 41
22 21 20 21 22 24 29 28 30 27 27 28 31 30 30 26 20 13 12 15 17 20 22 21 22 24 25 29 29 26 28 21 22 23 21 22 27 26 29 24 28 31 35 36 36 39 41 40 27 33 35 32 32 31
16 15 15 19 23 27 27 27 27 26 29 31 30 29 24 18 12 11 13 14 17 20 22 24 26 27 26 28 29 30 30 30 29 33 23 32 36 38 28 24 29 33 33 32 32 36 30 27 30 34 36 36 36 30
15 13 16 20 23 25 26 25 25 27 28 30 32 24 17 14 13 14 14 12 21 27 27 25 24 27 25 23 28 28 27 27 32 34 35 36 40 33 27 24 25 29 32 35 37 35 40 35 32 28 31 38 32 28
18 19 19 20 24 25 22 24 27 29 32 32 24 19 18 16 15 21 22 21 23 28 28 29 28 28 29 26 26 27 27 30 31 32 35 39 41 34 26 27 26 27 31 34 34 32 38 42 42 39 33 29 32 31
17 21 21 23 26 23 21 25 29 31 28 20 18 17 20 17 19 21 23 20 24 26 28 30 32 30 28 21 20 24 30 31 31 32 30 32 24 22 22 25 24 18 16 17 20 22 29 31 31 33 35 35 37 36
21 22 23 22 19 19 20 21 22 22 19 19 17 18 19 17 19 22 24 26 26 26 27 28 31 23 19 20 23 27 29 28 26 24 23 14 12 13 18 18 18 16 16 20 21 18 13 13 13 13 12 14 18 22
20 19 19 20 20 19 20 19 18 18 15 13 14 17 19 19 22 26 28 28 29 29 27 21 17 19 17 19 23 22 20 15 9 6 7 6 8 14 15 15 14 14 16 18 20 23 25 20 13 9 10 10 8 10
20 20 20 19 16 14 14 13 15 13 12 13 15 17 21 22 24 24 23 23 22 23 23 23 23 22 16 5 4 3 2 2 3 3 4 7 12 15 14 15 16 18 19 19 17 17 18 21 23 23 15 8 6 11
20 21 19 16 15 13 13 9 11 12 14 16 19 15 10 9 12 13 14 15 15 13 9 4 2 5 7 5 3 4 5 5 1 0 4 8 11 13 16 18 18 18 18 16 17 17 17 20 22 24 24 23 20 14
22 20 17 21 17 21 22 15 12 14 10 7 4 4 6 7 7 6 3 6 11 12 9 6 7 9 8 7 6 4 1 3 2 4 7 9 11 13 14 15 16 18 19 19 19 19 19 19 21 21 22 22 21 20
22 20 21 21 20 23 22 22 14 12 7 7 9 9 9 10 9 10 11 11 11 11 10 11 11 9 6 4 3 3 3 3 6 7 9 11 12 13 14 15 14 16 16 15 15 16 17 18 18 19 19 18 16 15
23 20 18 23 18 18 17 12 12 11 12 15 13 12 12 11 11 12 12 13 14 12 11 11 9 7 4 2 3 5 7 9 10 11 12 14 16 16 16 16 16 16 17 18 19 19 19 19 20 22 23 22 22 23
26 23 19 18 17 17 16 16 15 16 17 15 18 20 19 17 16 14 13 14 14 12 10 10 12 14 14 15 16 16 14 16 17 19 19 20 20 21 21 21 19 18 18 17 18 19 20 21 22 23 24 25 26 27
21 19 16 14 16 16 16 16 15 15 17 22 20 18 16 13 11 9 8 6 7 9 11 13 14 17 18 21 21 24 25 24 24 25 27 26 25 24 26 26 25 21 21 22 22 22 22 23 24 25 25 26 28 31
15 14 15 17 19 19 20 19 21 25 22 19 15 12 9 6 4 3 5 7 9 11 12 13 17 21 22 23 27 29 28 25 30 32 26 24 24 24 25 24 22 21 21 21 20 22 23 25 26 27 29 31 33 35
18 20 20 20 23 25 26 26 23 19 15 12 8 5 3 2 5 8 10 13 15 18 21 22 23 25 27 30 32 31 28 24 24 22 28 27 22 21 21 21 20 20 21 23 24 25 27 29 31 33 35 37 38 37
19 20 22 25 26 25 22 19 15 12 9 7 5 6 7 10 13 15 18 20 22 23 24 25 26 26 25 25 26 24 20 17 17 17 12 10 11 13 13 15 19 21 22 22 23 25 27 28 30 32 34 36 37 37
23 24 26 25 22 19 16 14 12 10 9 9 10 12 14 17 19 21 23 25 25 25 24 24 25 26 24 20 18 17 17 15 15 18 21 18 18 19 20 22 22 22 23 24 25 27 29 31 33 34 35 36 37 38
25 21 17 14 14 12 12 11 11 12 13 14 15 19 21 22 23 27 27 26 26 27 28 29 29 28 23 20 19 20 21 20 19 17 18 20 22 22 23 24 25 27 28 28 29 30 30 31 32 33 34 35 36 37
19 18 18 17 17 16 16 17 17 17 19 21 21 21 23 26 28 28 29 29 30 30 30 28 24 21 19 20 20 21 21 20 18 18 20 21 23 26 27 28 28 28 29 29 29 29 29 29 30 32 33 34 36 38
Wind_Direction
279 278 278 278 277 276 276 275 275 274 273 272 271 270 270 270 270 269 269 268 267 266 266 267 267 268 265 265 264 263 263 263 263 263 263 263 261 259 260 260 259 256 255 255 255 255 254 254 252 256 257 255 257 260
277 277 276 276 275 275 274 274 274 273 273 272 272 271 270 270 269 269 268 267 266 265 264 263 264 265 264 265 266 263 264 265 265 264 262 260 259 258 258 256 256 256 257 255 253 254 255 254 253 252 253 255 252 254
277 277 277 276 275 275 274 274 274 274 274 274 274 274 273 272 270 270 269 268 268 267 264 264 264 261 261 263 263 265 265 269 267 269 267 267 264 260 257 255 254 253 253 253 252 252 254 253 253 249 249 252 254 252
278 277 277 276 276 276 275 275 276 276 276 277 276 274 274 274 274 270 270 266 264 267 267 265 265 265 264 264 265 266 266 266 267 268 269 268 267 265 261 259 255 253 250 252 251 253 252 249 250 251 247 246 248 252
276 276 275 275 275 276 277 278 278 278 277 275 274 273 270 266 259 253 254 256 260 265 271 271 267 267 262 261 264 266 268 268 270 268 267 267 266 267 266 262 257 255 254 245 247 246 249 252 252 249 249 247 245 247
276 275 275 275 275 276 278 280 280 279 276 274 272 266 247 246 248 250 253 258 262 264 266 270 268 264 264 269 272 272 271 265 264 268 268 267 268 268 270 269 266 262 257 256 248 240 236 240 243 246 250 252 249 245
275 274 271 269 271 276 279 281 280 279 276 271 259 240 238 245 250 257 260 259 260 263 265 271 268 268 264 262 263 263 263 266 267 266 265 270 269 270 271 272 277 274 270 269 263 259 246 242 246 244 239 238 242 244
270 269 265 264 270 276 276 276 274 269 268 253 242 238 243 248 252 258 253 252 254 261 265 264 270 265 253 255 262 266 269 273 277 276 274 267 266 269 271 284 290 288 283 280 281 273 268 258 247 243 237 244 243 244
268 266 265 267 270 270 268 266 265 264 263 235 236 241 244 250 253 249 250 248 245 226 244 262 265 261 262 258 265 273 281 277 271 277 281 273 273 271 292 297 289 289 276 273 264 269 272 272 264 247 247 253 255 253
268 269 268 267 267 266 262 257 255 256 241 232 234 239 244 245 248 249 250 246 244 241 244 255 264 267 271 272 274 277 277 274 281 273 272 279 284 295 300 297 287 267 261 271 285 292 286 286 285 270 259 253 251 250
269 270 270 266 262 258 251 244 240 240 230 230 233 240 242 244 250 253 253 251 250 249 250 257 261 261 263 266 269 273 279 283 280 283 284 282 283 292 271 275 276 276 279 281 280 284 281 276 276 275 274 265 263 261
272 270 266 261 256 244 234 229 231 226 226 229 243 244 246 247 249 249 253 258 258 253 250 253 251 254 258 264 267 269 273 274 280 283 285 298 318 287 275 270 269 270 270 273 278 276 275 277 281 285 278 271 264 257
267 266 263 257 242 225 217 221 221 219 217 221 234 242 245 248 253 257 261 275 288 271 244 243 248 253 256 262 269 275 279 286 287 291 299 317 301 302 303 287 261 271 269 272 270 271 269 276 280 273 279 279 281 276
261 263 253 227 215 208 216 216 213 218 215 227 237 241 246 254 267 272 254 256 243 231 241 249 251 254 262 263 269 277 276 280 293 303 315 311 306 300 312 295 270 266 271 275 278 280 275 284 271 274 279 275 277 289
253 242 225 212 207 211 210 206 211 221 216 224 235 243 249 253 247 248 252 252 243 239 242 243 246 253 258 265 268 269 280 278 297 306 302 300 306 303 297 271 263 272 280 277 276 277 281 278 265 272 274 280 276 290
232 221 209 208 211 205 202 204 213 221 221 229 236 243 248 252 247 246 246 258 255 248 244 245 252 257 262 260 264 271 269 275 288 296 302 303 300 310 288 285 290 287 279 275 275 268 268 286 284 278 275 271 277 283
222 220 217 208 199 199 211 216 210 214 220 228 238 246 247 244 235 237 265 264 273 255 251 251 256 261 265 265 258 264 272 278 287 293 293 299 305 314 312 313 323 309 289 285 285 271 266 274 277 272 265 261 261 271
212 208 200 195 201 209 217 218 219 223 233 240 244 240 240 245 242 246 259 270 253 260 257 255 259 262 270 262 253 258 268 279 284 288 297 301 325 333 345 334 326 353 350 319 301 291 285 281 283 280 279 271 263 264
200 194 192 201 212 218 224 227 229 235 237 237 232 225 229 237 248 249 255 257 252 258 268 264 268 276 277 268 256 263 270 275 292 294 295 322 348 342 332 329 334 331 344 8 6 348 326 309 302 295 298 281 282 272
198 194 195 204 210 215 223 224 229 232 225 221 221 224 234 242 245 247 251 257 258 261 270 280 280 276 265 259 264 276 284 288 281 306 321 350 322 319 327 336 340 353 6 8 8 13 20 16 358 318 286 276 309 287
191 188 193 200 203 205 213 216 224 224 223 222 231 232 234 233 239 246 253 258 264 266 270 276 280 283 290 279 261 260 262 255 285 319 352 311 311 317 331 346 351 354 357 358 4 8 14 28 40 47 43 21 312 290
184 180 182 188 203 215 250 256 236 234 229 221 222 227 245 254 245 247 251 258 271 280 289 310 70 114 120 143 192 242 233 260 310 61 286 304 313 329 336 342 354 2 5 4 6 9 12 17 24 27 32 38 47 48
184 184 187 212 227 225 225 237 235 211 186 170 184 203 217 226 219 218 195 91 94 105 112 124 132 139 153 165 199 218 260 342 273 285 301 306 321 329 335 346 355 2 9 17 12 12 13 10 10 8 9 10 9 13
185 190 193 199 217 217 232 239 210 182 168 168 152 140 150 156 139 136 134 136 130 125 118 111 110 112 108 139 130 78 29 316 311 311 319 324 327 327 329 334 340 347 353 358 358 1 7 11 8 7 6 5 5 4
173 187 199 214 209 193 176 165 174 190 183 157 148 139 132 136 136 127 124 116 103 89 75 69 66 53 57 25 339 302 290 297 298 291 292 301 305 305 307 313 316 319 325 330 333 340 345 348 350 352 352 351 351 352
181 198 176 157 167 175 184 185 188 184 173 170 156 141 132 123 112 104 87 65 48 35 20 357 346 345 344 339 338 324 303 297 292 291 292 292 295 297 297 297 299 302 306 309 312 316 320 322 323 326 329 332 333 334
169 166 159 161 173 180 191 187 172 168 162 146 133 124 118 113 99 74 54 27 352 332 315 313 313 318 320 313 309 321 326 306 287 284 283 282 282 284 288 292 294 295 299 301 304 306 308 312 316 316 316 317 319 321
170 172 172 178 182 179 170 164 161 156 150 141 132 119 113 99 77 20 333 315 307 306 305 302 308 310 314 321 326 321 314 298 277 270 274 274 270 275 272 273 277 281 285 288 293 298 301 304 307 309 310 311 311 312
176 177 177 172 166 160 156 153 154 152 152 152 148 148 174 270 301 300 297 301 308 311 313 315 316 318 317 319 322 313 306 298 296 293 275 273 277 277 274 272 273 274 279 285 293 299 302 304 306 309 312 312 311 310
175 166 162 159 157 156 158 160 164 172 179 192 222 257 276 288 295 301 304 308 313 314 314 314 315 314 313 312 313 310 308 305 288 309 289 272 269 273 279 289 295 295 297 296 296 298 299 300 301 302 303 303 302 302
162 160 159 161 164 171 180 185 197 215 232 247 266 282 293 298 299 299 300 306 308 306 303 300 300 299 297 300 305 310 307 296 292 288 291 297 297 295 293 289 288 289 289 291 295 298 300 302 302 302 301 301 301 302
164 166 172 178 187 198 214 231 246 260 270 275 284 290 293 294 298 303 307 302 295 288 285 288 292 295 289 287 293 296 296 296 294 286 283 288 288 288 291 293 293 294 295 298 299 299 300 300 302 303 304 306 308 311
194 200 208 215 222 233 244 251 256 264 273 281 284 289 298 305 307 306 304 299 296 295 296 297 296 292 293 293 296 296 290 288 291 293 290 289 290 293 295 296 297 298 299 300 299 300 301 303 304 306 309 311 314 316